| time (UTC) | temp F | wind direction | speed knots | gust knots | rain 1hr in | rain 24hr in | rain mn in | humidity % | barometer mb |
| 20260507191320 | 62 | 158 | 18.2 | 29.5 | 0.00 | 0.00 | 0.05 | 52 | 999.1 |
| 20260507190812 | 62 | 203 | 18.2 | 26.1 | 0.00 | 0.00 | 0.05 | 51 | 999.1 |
| 20260507190302 | 62 | 180 | 19.1 | 27.8 | 0.00 | 0.00 | 0.05 | 52 | 999.1 |
| 20260507185747 | 62 | 180 | 16.5 | 27.8 | 0.00 | 0.00 | 0.05 | 52 | 998.6 |
| 20260507185246 | 63 | 135 | 15.6 | 25.2 | 0.00 | 0.00 | 0.05 | 51 | 998.9 |
| 20260507184730 | 64 | 180 | 14.8 | 25.2 | 0.00 | 0.00 | 0.05 | 51 | 999.1 |
| 20260507184222 | 63 | 180 | 17.4 | 25.2 | 0.00 | 0.00 | 0.05 | 51 | 999.2 |
| 20260507183707 | 64 | 180 | 14.8 | 26.1 | 0.00 | 0.00 | 0.05 | 51 | 999.1 |
| 20260507182644 | 63 | 180 | 18.2 | 25.2 | 0.00 | 0.00 | 0.05 | 50 | 998.9 |
| 20260507182137 | 63 | 203 | 16.5 | 25.2 | 0.00 | 0.00 | 0.05 | 50 | 998.6 |
| 20260507181118 | 63 | 203 | 15.6 | 23.5 | 0.00 | 0.00 | 0.05 | 51 | 999.6 |
| 20260507180605 | 64 | 180 | 13.9 | 26.1 | 0.00 | 0.00 | 0.05 | 52 | 999.7 |
| 20260507180110 | 63 | 180 | 18.2 | 26.1 | 0.00 | 0.00 | 0.05 | 52 | 999.8 |
| 20260507175042 | 61 | 203 | 14.8 | 23.5 | 0.00 | 0.00 | 0.05 | 54 | 1000.4 |
| 20260507174526 | 61 | 225 | 16.5 | 21.7 | 0.00 | 0.00 | 0.05 | 54 | 1000.4 |
| 20260507174018 | 61 | 203 | 13.9 | 21.7 | 0.00 | 0.00 | 0.05 | 54 | 1000.6 |
| 20260507173508 | 61 | 203 | 11.3 | 20.9 | 0.00 | 0.00 | 0.05 | 55 | 1000.8 |
| 20260507171938 | 60 | 180 | 14.8 | 19.1 | 0.00 | 0.00 | 0.05 | 55 | 1001.2 |
| 20260507171423 | 60 | 203 | 11.3 | 15.6 | 0.00 | 0.00 | 0.05 | 57 | 1001.5 |
| 20260507170920 | 60 | 203 | 9.6 | 15.6 | 0.00 | 0.00 | 0.05 | 59 | 1001.7 |
| 20260507170404 | 60 | 203 | 9.6 | 15.6 | 0.00 | 0.00 | 0.05 | 58 | 1001.9 |
| 20260507165857 | 59 | 203 | 10.4 | 15.6 | 0.00 | 0.00 | 0.05 | 59 | 1001.7 |
| 20260507165344 | 59 | 225 | 11.3 | 17.4 | 0.00 | 0.00 | 0.05 | 60 | 1002.0 |
| 20260507164835 | 59 | 203 | 12.2 | 17.4 | 0.00 | 0.00 | 0.05 | 59 | 1001.9 |
| 20260507164326 | 59 | 203 | 11.3 | 17.4 | 0.00 | 0.00 | 0.05 | 60 | 1001.5 |
| 20260507163819 | 59 | 203 | 10.4 | 17.4 | 0.00 | 0.00 | 0.05 | 60 | 1001.5 |
| 20260507163651 | 59 | 180 | 13.0 | 20.0 | 0.00 | 0.00 | 0.05 | 60 | 1001.3 |
| 20260507162754 | 59 | 158 | 9.6 | 20.0 | 0.00 | 0.00 | 0.05 | 60 | 1001.2 |
| 20260507162044 | 59 | 203 | 12.2 | 14.8 | 0.00 | 0.00 | 0.05 | 61 | 1001.1 |
| 20260507153435 | 58 | 203 | 8.7 | 15.6 | 0.00 | 0.00 | 0.05 | 64 | 1001.2 |
| 20260507152918 | 58 | 203 | 7.8 | 14.8 | 0.00 | 0.00 | 0.05 | 66 | 1001.3 |
| 20260507152406 | 57 | 203 | 11.3 | 14.8 | 0.00 | 0.00 | 0.05 | 66 | 1001.8 |
| 20260507151901 | 57 | 203 | 9.6 | 13.0 | 0.00 | 0.00 | 0.05 | 66 | 1001.8 |
| 20260507151344 | 57 | 225 | 8.7 | 13.9 | 0.00 | 0.00 | 0.05 | 68 | 1002.1 |
| 20260507150255 | 56 | 180 | 10.4 | 23.5 | 0.00 | 0.00 | 0.05 | 72 | 999.1 |
| 20260507145818 | 56 | 225 | 8.7 | 15.6 | 0.00 | 0.00 | 0.05 | 68 | 1001.9 |
| 20260507145307 | 56 | 225 | 9.6 | 13.9 | 0.00 | 0.00 | 0.05 | 68 | 1002.0 |
| 20260507144755 | 56 | 180 | 8.7 | 15.6 | 0.00 | 0.00 | 0.05 | 69 | 1001.9 |
| 20260507144248 | 56 | 180 | 9.6 | 15.6 | 0.00 | 0.00 | 0.05 | 68 | 1001.5 |
| 20260507144204 | 57 | 180 | 13.0 | 21.7 | 0.00 | 0.00 | 0.05 | 71 | 998.5 |
| 20260507143742 | 56 | 225 | 10.4 | 13.9 | 0.00 | 0.00 | 0.05 | 68 | 1001.5 |
| 20260507143226 | 56 | 203 | 9.6 | 13.9 | 0.00 | 0.00 | 0.05 | 68 | 1001.8 |
| 20260507142721 | 56 | 203 | 8.7 | 13.9 | 0.00 | 0.00 | 0.05 | 69 | 1001.9 |
| 20260507142204 | 57 | 203 | 9.6 | 14.8 | 0.00 | 0.00 | 0.05 | 68 | 1001.9 |
| 20260507141701 | 57 | 203 | 8.7 | 14.8 | 0.00 | 0.00 | 0.05 | 72 | 1001.6 |
| 20260507140856 | 57 | 135 | 13.9 | 23.5 | 0.00 | 0.00 | 0.05 | 72 | 998.2 |
| 20260507140639 | 56 | 203 | 9.6 | 13.9 | 0.00 | 0.00 | 0.05 | 71 | 1001.4 |
| 20260507140126 | 56 | 180 | 8.7 | 13.9 | 0.00 | 0.00 | 0.05 | 73 | 1001.5 |
| 20260507135835 | 57 | 180 | 14.8 | 23.5 | 0.00 | 0.00 | 0.05 | 72 | 998.2 |
| 20260507135620 | 56 | 180 | 6.1 | 12.2 | 0.00 | 0.00 | 0.05 | 72 | 1001.2 |
| 20260507135108 | 56 | 203 | 7.0 | 12.2 | 0.00 | 0.00 | 0.05 | 72 | 1001.4 |
| 20260507134600 | 56 | 180 | 7.0 | 11.3 | 0.00 | 0.00 | 0.05 | 71 | 1001.4 |
| 20260507134044 | 56 | 203 | 7.0 | 12.2 | 0.00 | 0.00 | 0.05 | 72 | 1001.5 |
| 20260507133536 | 56 | 180 | 8.7 | 13.9 | 0.00 | 0.00 | 0.05 | 70 | 1001.6 |
| 20260507133024 | 56 | 203 | 7.0 | 13.9 | 0.00 | 0.00 | 0.05 | 70 | 1001.5 |
| 20260507132525 | 56 | 203 | 10.4 | 13.9 | 0.00 | 0.00 | 0.05 | 68 | 1001.5 |
| 20260507132415 | 57 | 180 | 12.2 | 20.0 | 0.00 | 0.00 | 0.05 | 74 | 997.7 |
| 20260507131454 | 56 | 203 | 6.1 | 12.2 | 0.00 | 0.00 | 0.05 | 70 | 1001.0 |
| 20260507125928 | 56 | 203 | 7.8 | 17.4 | 0.00 | 0.00 | 0.05 | 71 | 1001.6 |
| 20260507125416 | 56 | 180 | 8.7 | 17.4 | 0.00 | 0.00 | 0.05 | 71 | 1001.6 |
| 20260507124901 | 56 | 203 | 10.4 | 14.8 | 0.00 | 0.00 | 0.05 | 70 | 1001.4 |
| 20260507123838 | 56 | 158 | 9.6 | 15.6 | 0.00 | 0.00 | 0.05 | 71 | 1001.0 |
| 20260507122822 | 56 | 158 | 9.6 | 18.2 | 0.00 | 0.00 | 0.05 | 72 | 1000.1 |
| 20260507122317 | 56 | 180 | 13.0 | 20.0 | 0.00 | 0.00 | 0.05 | 70 | 999.9 |
| 20260507121801 | 56 | 180 | 13.0 | 20.0 | 0.00 | 0.00 | 0.05 | 71 | 1000.2 |
| 20260507120741 | 56 | 180 | 9.6 | 18.2 | 0.00 | 0.00 | 0.05 | 72 | 999.9 |
| 20260507120239 | 57 | 135 | 9.6 | 18.2 | 0.00 | 0.00 | 0.05 | 71 | 999.6 |
| 20260507115720 | 57 | 158 | 9.6 | 19.1 | 0.00 | 0.00 | 0.05 | 72 | 999.3 |
| 20260507115133 | 58 | 113 | 9.6 | 18.2 | 0.00 | 0.00 | 0.05 | 76 | 998.1 |
| 20260507114707 | 57 | 203 | 13.9 | 23.5 | 0.00 | 0.00 | 0.05 | 72 | 998.8 |
| 20260507113645 | 57 | 180 | 13.0 | 20.9 | 0.00 | 0.00 | 0.05 | 73 | 998.3 |
| 20260507113133 | 57 | 180 | 11.3 | 23.5 | 0.00 | 0.00 | 0.05 | 72 | 998.0 |
| 20260507111559 | 57 | 90 | 14.8 | 20.9 | 0.00 | 0.00 | 0.05 | 73 | 997.7 |
| 20260507111053 | 56 | 203 | 13.0 | 20.0 | 0.00 | 0.00 | 0.05 | 74 | 997.7 |
| 20260507110033 | 57 | 158 | 13.0 | 20.0 | 0.00 | 0.00 | 0.05 | 73 | 997.6 |
| 20260507105514 | 57 | 113 | 13.9 | 20.0 | 0.00 | 0.00 | 0.05 | 72 | 997.7 |
| 20260507105021 | 57 | 180 | 13.9 | 20.0 | 0.00 | 0.00 | 0.05 | 73 | 997.2 |
| 20260507104453 | 57 | 203 | 11.3 | 18.2 | 0.00 | 0.00 | 0.05 | 76 | 997.2 |
| 20260507103952 | 58 | 203 | 9.6 | 17.4 | 0.00 | 0.00 | 0.05 | 77 | 997.7 |
| 20260507102927 | 58 | 158 | 9.6 | 18.2 | 0.00 | 0.00 | 0.05 | 79 | 998.3 |
| 20260507102424 | 58 | 180 | 11.3 | 15.6 | 0.00 | 0.00 | 0.05 | 78 | 998.6 |
| 20260507101910 | 58 | 180 | 9.6 | 15.6 | 0.00 | 0.00 | 0.05 | 79 | 998.8 |
| 20260507101358 | 59 | 180 | 9.6 | 15.6 | 0.00 | 0.00 | 0.05 | 80 | 998.5 |
| 20260507100853 | 59 | 203 | 9.6 | 15.6 | 0.00 | 0.00 | 0.05 | 81 | 998.2 |
| 20260507100341 | 59 | 158 | 9.6 | 17.4 | 0.00 | 0.00 | 0.05 | 83 | 998.4 |
| 20260507095313 | 60 | 113 | 9.6 | 19.1 | 0.00 | 0.00 | 0.05 | 84 | 998.6 |
| 20260507094809 | 60 | 158 | 9.6 | 19.1 | 0.00 | 0.00 | 0.05 | 84 | 998.9 |
| 20260507094254 | 60 | 225 | 13.0 | 18.2 | 0.00 | 0.00 | 0.05 | 82 | 998.8 |
| 20260507093632 | 61 | 203 | 16.5 | 25.2 | 0.00 | 0.00 | 0.05 | 81 | 998.9 |
| 20260507093206 | 61 | 180 | 13.0 | 21.7 | 0.05 | 0.05 | 0.05 | 84 | 999.0 |
| 20260507092644 | 62 | 180 | 11.3 | 20.9 | 0.05 | 0.05 | 0.05 | 85 | 999.5 |
| 20260507092141 | 62 | 180 | 13.0 | 23.5 | 0.05 | 0.05 | 0.05 | 87 | 999.1 |
| 20260507091624 | 63 | 180 | 13.0 | 23.5 | 0.05 | 0.05 | 0.05 | 90 | 999.1 |
| 20260507091121 | 63 | 158 | 11.3 | 13.9 | 0.05 | 0.05 | 0.05 | 93 | 999.2 |
| 20260507090620 | 63 | 203 | 9.6 | 13.9 | 0.05 | 0.05 | 0.05 | 94 | 999.7 |
| 20260507090114 | 63 | 135 | 7.0 | 13.0 | 0.05 | 0.05 | 0.05 | 94 | 999.6 |
| 20260507085545 | 63 | 158 | 7.0 | 14.8 | 0.05 | 0.05 | 0.05 | 95 | 999.1 |
| 20260507085051 | 63 | 158 | 7.0 | 14.8 | 0.05 | 0.05 | 0.05 | 94 | 999.0 |
| 20260507084525 | 63 | 135 | 4.3 | 9.6 | 0.04 | 0.04 | 0.04 | 94 | 999.4 |
| 20260507084017 | 63 | 180 | 7.0 | 13.0 | 0.00 | 0.00 | 0.00 | 93 | 999.8 |
| 20260507083502 | 63 | 225 | 7.0 | 13.9 | 0.00 | 0.00 | 0.00 | 93 | 1000.3 |
| 20260507083000 | 63 | 180 | 8.7 | 13.9 | 0.00 | 0.00 | 0.00 | 92 | 998.7 |
| 20260507082444 | 63 | 158 | 5.2 | 14.8 | 0.00 | 0.00 | 0.00 | 92 | 998.2 |
| 20260507081939 | 63 | 180 | 7.8 | 14.8 | 0.00 | 0.00 | 0.00 | 92 | 998.6 |
| 20260507074846 | 64 | 180 | 7.0 | 12.2 | 0.00 | 0.00 | 0.00 | 91 | 997.7 |
| 20260507074317 | 64 | 203 | 7.0 | 12.2 | 0.00 | 0.00 | 0.00 | 90 | 997.7 |
| 20260507073303 | 64 | 180 | 5.2 | 9.6 | 0.00 | 0.00 | 0.00 | 90 | 998.3 |
| 20260507072757 | 65 | 135 | 4.3 | 12.2 | 0.00 | 0.00 | 0.00 | 90 | 998.3 |
| 20260507072242 | 65 | 158 | 6.1 | 12.2 | 0.00 | 0.00 | 0.00 | 90 | 998.1 |
| 20260507071736 | 65 | 135 | 6.1 | 11.3 | 0.00 | 0.00 | 0.00 | 90 | 998.0 |
| 20260507071223 | 65 | 203 | 3.5 | 13.0 | 0.00 | 0.00 | 0.00 | 89 | 997.7 |
| 20260507071009 | 66 | 203 | 7.0 | 11.3 | 0.00 | 0.00 | 0.00 | 88 | 997.7 |
| 20260507070717 | 65 | 180 | 7.0 | 13.0 | 0.00 | 0.00 | 0.00 | 89 | 997.8 |
| 20260507070204 | 65 | 180 | 7.0 | 13.0 | 0.00 | 0.00 | 0.00 | 89 | 997.6 |
| 20260507065708 | 65 | 203 | 7.0 | 12.2 | 0.00 | 0.00 | 0.00 | 89 | 997.4 |
| 20260507065136 | 66 | 158 | 7.0 | 14.8 | 0.00 | 0.00 | 0.00 | 89 | 997.7 |
| 20260507064115 | 66 | 203 | 9.6 | 13.9 | 0.00 | 0.00 | 0.00 | 88 | 997.6 |
| 20260507063612 | 66 | 180 | 5.2 | 9.6 | 0.00 | 0.00 | 0.00 | 88 | 997.7 |
| 20260507062553 | 67 | 158 | 6.1 | 11.3 | 0.00 | 0.00 | 0.00 | 88 | 997.8 |
| 20260507061535 | 67 | 203 | 6.1 | 7.8 | 0.00 | 0.00 | 0.00 | 88 | 998.4 |
| 20260507061030 | 67 | 203 | 3.5 | 7.8 | 0.00 | 0.00 | 0.00 | 93 | 997.9 |
| 20260507060502 | 66 | 180 | 4.3 | 6.1 | 0.00 | 0.00 | 0.00 | 94 | 997.7 |
| 20260507060226 | 66 | 180 | 1.7 | 0.0 | 0.00 | 0.00 | 0.00 | 94 | 997.1 |
| 20260507055643 | 66 | 180 | 1.7 | 3.5 | 0.00 | 0.04 | 0.00 | 93 | 997.0 |
| 20260507055134 | 67 | 113 | 1.7 | 3.5 | 0.00 | 0.04 | 0.00 | 93 | 997.1 |
| 20260507054623 | 67 | 135 | 1.7 | 3.5 | 0.00 | 0.04 | 0.00 | 92 | 997.2 |
| 20260507054117 | 67 | 45 | 1.7 | 6.1 | 0.00 | 0.04 | 0.00 | 92 | 997.1 |
| 20260507053459 | 71 | 45 | 2.6 | 3.5 | 0.00 | 0.00 | 0.00 | 90 | 996.2 |
| 20260507053057 | 67 | 135 | 1.7 | 3.5 | 0.00 | 0.04 | 0.00 | 91 | 997.3 |
| 20260507052541 | 67 | 68 | 1.7 | 7.0 | 0.00 | 0.04 | 0.00 | 91 | 997.5 |
| 20260507052041 | 67 | 45 | 2.6 | 7.0 | 0.00 | 0.04 | 0.00 | 90 | 997.3 |
| 20260507051523 | 68 | 113 | 3.5 | 6.1 | 0.00 | 0.04 | 0.00 | 89 | 997.6 |
| 20260507051026 | 69 | 158 | 3.5 | 6.1 | 0.00 | 0.04 | 0.00 | 88 | 997.2 |
| 20260507050457 | 68 | 158 | 3.5 | 7.0 | 0.00 | 0.04 | 0.00 | 89 | 996.7 |
| 20260507045952 | 68 | 180 | 2.6 | 7.0 | 0.00 | 0.04 | 0.00 | 91 | 996.8 |
| 20260507045445 | 68 | 203 | 3.5 | 7.0 | 0.00 | 0.04 | 0.00 | 91 | 996.6 |
| 20260507044940 | 68 | 180 | 3.5 | 7.0 | 0.00 | 0.04 | 0.00 | 91 | 996.3 |
| 20260507044425 | 67 | 180 | 5.2 | 11.3 | 0.00 | 0.04 | 0.00 | 91 | 996.2 |
| 20260507043914 | 67 | 180 | 3.5 | 13.9 | 0.00 | 0.04 | 0.00 | 91 | 996.2 |
| 20260507043358 | 67 | 158 | 7.0 | 14.8 | 0.00 | 0.04 | 0.00 | 91 | 996.2 |
| 20260507042340 | 67 | 180 | 9.6 | 17.4 | 0.00 | 0.04 | 0.00 | 90 | 995.9 |
| 20260507041315 | 67 | 225 | 13.0 | 18.2 | 0.00 | 0.04 | 0.00 | 88 | 995.7 |
| 20260507040302 | 68 | 203 | 10.4 | 20.0 | 0.00 | 0.04 | 0.00 | 84 | 995.6 |
| 20260507034734 | 70 | 203 | 16.5 | 25.2 | 0.00 | 0.04 | 0.00 | 83 | 995.9 |
| 20260507033712 | 72 | 225 | 17.4 | 26.1 | 0.04 | 0.04 | 0.00 | 87 | 995.8 |
| 20260507033200 | 72 | 225 | 20.0 | 26.1 | 0.04 | 0.04 | 0.00 | 88 | 995.6 |
| 20260507032332 | 77 | 22 | 2.6 | 3.5 | 0.00 | 0.00 | 0.00 | 81 | 995.9 |
| 20260507032141 | 72 | 203 | 6.1 | 7.8 | 0.04 | 0.04 | 0.00 | 91 | 995.1 |
| 20260507031635 | 72 | 203 | 5.2 | 7.0 | 0.04 | 0.04 | 0.00 | 91 | 995.0 |
| 20260507031124 | 72 | 203 | 2.6 | 6.1 | 0.04 | 0.04 | 0.00 | 92 | 994.6 |
| 20260507030610 | 71 | 180 | 2.6 | 6.1 | 0.04 | 0.04 | 0.00 | 93 | 994.2 |
| 20260507030107 | 71 | 180 | 1.7 | 3.5 | 0.04 | 0.04 | 0.00 | 93 | 994.4 |
| 20260507025551 | 72 | 203 | 1.7 | 3.5 | 0.04 | 0.04 | 0.04 | 92 | 995.0 |
| 20260507025034 | 72 | 225 | 2.6 | 3.5 | 0.04 | 0.04 | 0.04 | 91 | 995.5 |
| 20260507024534 | 73 | 225 | 0.9 | 1.7 | 0.02 | 0.02 | 0.04 | 89 | 996.0 |
| 20260507024015 | 73 | 45 | 0.0 | 1.7 | 0.00 | 0.00 | 0.00 | 88 | 995.5 |
| 20260507023510 | 73 | 203 | 0.0 | 1.7 | 0.00 | 0.00 | 0.00 | 87 | 995.3 |
| 20260507022957 | 73 | 203 | 1.7 | 3.5 | 0.00 | 0.00 | 0.00 | 88 | 995.3 |
| 20260507022452 | 73 | 203 | 0.9 | 7.0 | 0.00 | 0.00 | 0.00 | 88 | 995.1 |
| 20260507021939 | 72 | 225 | 3.5 | 7.8 | 0.00 | 0.00 | 0.00 | 89 | 996.1 |
| 20260507021427 | 72 | 180 | 4.3 | 7.8 | 0.00 | 0.00 | 0.00 | 91 | 996.2 |
| 20260507020928 | 71 | 0 | 0.0 | 3.5 | 0.00 | 0.00 | 0.00 | 90 | 996.3 |
| 20260507020414 | 71 | 0 | 1.7 | 3.5 | 0.00 | 0.00 | 0.00 | 90 | 996.1 |
| 20260507015353 | 72 | 293 | 0.0 | 0.0 | 0.00 | 0.00 | 0.00 | 90 | 996.2 |
| 20260507015319 | 82 | 23 | 11.3 | 15.6 | 0.00 | 0.00 | 0.00 | 70 | 994.6 |
| 20260507014840 | 72 | 293 | 0.0 | 0.0 | 0.00 | 0.00 | 0.00 | 89 | 996.2 |
| 20260507014331 | 72 | 293 | 0.0 | 1.7 | 0.00 | 0.00 | 0.00 | 89 | 995.9 |
| 20260507014131 | 83 | 22 | 10.4 | 17.4 | 0.00 | 0.00 | 0.00 | 69 | 995.1 |
| 20260507013825 | 72 | 293 | 0.0 | 3.5 | 0.00 | 0.00 | 0.00 | 89 | 995.8 |
| 20260507013307 | 72 | 293 | 1.7 | 3.5 | 0.00 | 0.00 | 0.00 | 89 | 996.1 |
| 20260507012757 | 72 | 293 | 1.7 | 3.5 | 0.00 | 0.00 | 0.00 | 89 | 996.4 |
| 20260507012246 | 72 | 45 | 2.6 | 3.5 | 0.00 | 0.00 | 0.00 | 89 | 996.5 |
| 20260507011227 | 71 | 22 | 2.6 | 3.5 | 0.00 | 0.00 | 0.00 | 90 | 996.5 |
| 20260507010712 | 72 | 22 | 2.6 | 3.5 | 0.00 | 0.00 | 0.00 | 89 | 996.3 |
| 20260507005654 | 73 | 293 | 1.7 | 5.2 | 0.00 | 0.00 | 0.00 | 88 | 996.2 |
| 20260507005152 | 73 | 293 | 2.6 | 5.2 | 0.00 | 0.00 | 0.00 | 89 | 996.3 |
| 20260507004127 | 72 | 22 | 1.7 | 3.5 | 0.00 | 0.00 | 0.00 | 90 | 996.4 |
| 20260507003616 | 72 | 22 | 2.6 | 3.5 | 0.00 | 0.00 | 0.00 | 88 | 996.6 |
| 20260507003338 | 87 | 45 | 9.6 | 17.4 | 0.00 | 0.00 | 0.00 | 58 | 996.3 |
| 20260507002604 | 73 | 293 | 1.7 | 3.5 | 0.00 | 0.00 | 0.00 | 87 | 996.5 |
| 20260507001536 | 74 | 293 | 1.7 | 3.5 | 0.00 | 0.00 | 0.00 | 86 | 996.8 |
| 20260507001042 | 74 | 22 | 2.6 | 3.5 | 0.00 | 0.00 | 0.00 | 86 | 996.8 |
| 20260507000513 | 75 | 293 | 1.7 | 3.5 | 0.00 | 0.00 | 0.00 | 87 | 997.0 |
| 20260506235450 | 74 | 293 | 1.7 | 3.5 | 0.00 | 0.00 | 0.00 | 87 | 997.1 |
| 20260506234943 | 74 | 225 | 1.7 | 5.2 | 0.00 | 0.00 | 0.00 | 87 | 997.1 |
| 20260506234436 | 74 | 225 | 1.7 | 5.2 | 0.00 | 0.00 | 0.00 | 88 | 997.2 |
| 20260506233641 | 88 | 293 | 8.7 | 15.6 | 0.00 | 0.00 | 0.00 | 59 | 996.1 |
| 20260506232918 | 74 | 22 | 0.0 | 3.5 | 0.00 | 0.00 | 0.00 | 86 | 996.7 |
| 20260506231851 | 74 | 22 | 2.6 | 3.5 | 0.00 | 0.00 | 0.00 | 86 | 996.4 |
| 20260506231334 | 74 | 22 | 1.7 | 3.5 | 0.00 | 0.00 | 0.00 | 85 | 996.3 |
| 20260506230831 | 75 | 22 | 1.7 | 3.5 | 0.00 | 0.00 | 0.00 | 85 | 996.4 |
| 20260506230333 | 75 | 22 | 1.7 | 3.5 | 0.00 | 0.00 | 0.00 | 84 | 996.4 |
| 20260506225802 | 76 | 0 | 1.7 | 3.5 | 0.00 | 0.00 | 0.00 | 83 | 996.4 |
| 20260506225250 | 76 | 180 | 0.0 | 0.0 | 0.00 | 0.00 | 0.00 | 83 | 996.7 |
| 20260506224742 | 76 | 203 | 0.0 | 1.7 | 0.00 | 0.00 | 0.00 | 83 | 996.7 |
| 20260506223727 | 77 | 45 | 1.7 | 5.2 | 0.00 | 0.00 | 0.00 | 81 | 996.2 |
| 20260506222705 | 76 | 22 | 1.7 | 3.5 | 0.00 | 0.00 | 0.00 | 82 | 996.1 |
| 20260506222150 | 76 | 22 | 1.7 | 3.5 | 0.00 | 0.00 | 0.00 | 82 | 995.9 |
| 20260506221648 | 76 | 22 | 1.7 | 3.5 | 0.00 | 0.00 | 0.00 | 82 | 995.9 |
| 20260506220622 | 76 | 22 | 2.6 | 5.2 | 0.00 | 0.00 | 0.00 | 81 | 995.7 |
| 20260506220522 | 88 | 293 | 13.9 | 19.1 | 0.00 | 0.00 | 0.00 | 60 | 997.7 |
| 20260506215601 | 78 | 22 | 3.5 | 7.0 | 0.00 | 0.00 | 0.00 | 78 | 995.6 |
| 20260506215053 | 78 | 22 | 3.5 | 9.6 | 0.00 | 0.00 | 0.00 | 77 | 995.7 |
| 20260506214540 | 79 | 22 | 5.2 | 9.6 | 0.00 | 0.00 | 0.00 | 76 | 995.5 |
| 20260506213529 | 80 | 0 | 7.0 | 11.3 | 0.00 | 0.00 | 0.00 | 75 | 995.4 |
| 20260506213005 | 80 | 22 | 7.0 | 11.3 | 0.00 | 0.00 | 0.00 | 74 | 995.4 |
| 20260506212506 | 80 | 0 | 7.0 | 13.9 | 0.00 | 0.00 | 0.00 | 73 | 995.2 |
| 20260506211943 | 81 | 22 | 7.0 | 18.2 | 0.00 | 0.00 | 0.00 | 73 | 995.1 |
| 20260506210933 | 82 | 0 | 12.2 | 18.2 | 0.00 | 0.00 | 0.00 | 71 | 994.8 |
| 20260506204847 | 83 | 22 | 10.4 | 15.6 | 0.00 | 0.00 | 0.00 | 69 | 995.2 |
| 20260506204341 | 83 | 22 | 10.4 | 15.6 | 0.00 | 0.00 | 0.00 | 68 | 995.3 |
| 20260506203822 | 84 | 22 | 12.2 | 15.6 | 0.00 | 0.00 | 0.00 | 67 | 995.3 |
| 20260506203322 | 84 | 22 | 10.4 | 14.8 | 0.00 | 0.00 | 0.00 | 67 | 995.7 |
| 20260506202802 | 84 | 22 | 9.6 | 15.6 | 0.00 | 0.00 | 0.00 | 67 | 995.6 |
| 20260506201746 | 85 | 0 | 12.2 | 15.6 | 0.00 | 0.00 | 0.00 | 66 | 996.0 |
| 20260506201237 | 85 | 0 | 12.2 | 15.6 | 0.00 | 0.00 | 0.00 | 65 | 995.7 |
| 20260506200729 | 85 | 0 | 11.3 | 15.6 | 0.00 | 0.00 | 0.00 | 65 | 995.8 |
| 20260506200220 | 86 | 45 | 11.3 | 15.6 | 0.00 | 0.00 | 0.00 | 63 | 996.1 |
| 20260506195204 | 87 | 293 | 8.7 | 13.9 | 0.00 | 0.00 | 0.00 | 60 | 996.2 |
| 20260506193622 | 88 | 45 | 12.2 | 15.6 | 0.00 | 0.00 | 0.00 | 58 | 996.3 |
| 20260506193119 | 88 | 293 | 11.3 | 15.6 | 0.00 | 0.00 | 0.00 | 57 | 996.5 |
| 20260506192616 | 87 | 293 | 9.6 | 15.6 | 0.00 | 0.00 | 0.00 | 59 | 996.6 |
| 20260506192057 | 87 | 45 | 11.3 | 15.6 | 0.00 | 0.00 | 0.00 | 59 | 996.5 |